| time (UTC) | temp F | wind direction | speed knots | gust knots | rain 1hr in | rain 24hr in | rain mn in | humidity % | barometer mb |
| 20260510203526 | 89 | 158 | 1.7 | 3.5 | 0.00 | 0.00 | 0.00 | 33 | 1019.0 |
| 20260510202521 | 87 | 143 | 3.5 | 7.0 | 0.00 | 0.00 | 0.00 | 35 | 1019.2 |
| 20260510201528 | 88 | 109 | 4.3 | 6.1 | 0.00 | 0.00 | 0.00 | 37 | 1019.3 |
| 20260510200522 | 87 | 17 | 2.6 | 5.2 | 0.00 | 0.00 | 0.00 | 36 | 1019.4 |
| 20260510195529 | 87 | 66 | 4.3 | 6.1 | 0.00 | 0.00 | 0.00 | 37 | 1019.4 |
| 20260510194523 | 87 | 37 | 4.3 | 7.0 | 0.00 | 0.00 | 0.00 | 36 | 1019.5 |
| 20260510193528 | 88 | 69 | 4.3 | 7.0 | 0.00 | 0.00 | 0.00 | 31 | 1019.5 |
| 20260510192524 | 87 | 59 | 2.6 | 5.2 | 0.00 | 0.00 | 0.00 | 25 | 1019.6 |
| 20260510191530 | 87 | 46 | 1.7 | 4.3 | 0.00 | 0.00 | 0.00 | 31 | 1019.6 |
| 20260510190527 | 87 | 115 | 3.5 | 7.0 | 0.00 | 0.00 | 0.00 | 37 | 1019.6 |
| 20260510185521 | 86 | 331 | 3.5 | 4.3 | 0.00 | 0.00 | 0.00 | 38 | 1019.7 |
| 20260510184526 | 86 | 348 | 0.9 | 4.3 | 0.00 | 0.00 | 0.00 | 39 | 1019.9 |
| 20260510183520 | 84 | 318 | 2.6 | 5.2 | 0.00 | 0.00 | 0.00 | 40 | 1020.1 |
| 20260510182526 | 87 | 331 | 2.6 | 4.3 | 0.00 | 0.00 | 0.00 | 38 | 1020.2 |
| 20260510181521 | 84 | 107 | 2.6 | 5.2 | 0.00 | 0.00 | 0.00 | 43 | 1020.2 |
| 20260510180548 | 85 | 299 | 2.6 | 5.2 | 0.00 | 0.00 | 0.00 | 43 | 1020.4 |
| 20260510175542 | 83 | 234 | 1.7 | 2.6 | 0.00 | 0.00 | 0.00 | 46 | 1020.5 |
| 20260510174528 | 83 | 285 | 1.7 | 3.5 | 0.00 | 0.00 | 0.00 | 52 | 1020.6 |
| 20260510173543 | 82 | 293 | 4.3 | 7.8 | 0.00 | 0.00 | 0.00 | 55 | 1020.8 |
| 20260510172528 | 84 | 315 | 1.7 | 5.2 | 0.00 | 0.00 | 0.00 | 57 | 1021.0 |
| 20260510171547 | 82 | 352 | 1.7 | 3.5 | 0.00 | 0.00 | 0.00 | 61 | 1021.0 |
| 20260510170530 | 83 | 10 | 2.6 | 5.2 | 0.00 | 0.00 | 0.00 | 61 | 1021.0 |
| 20260510165525 | 82 | 100 | 1.7 | 2.6 | 0.00 | 0.00 | 0.00 | 66 | 1021.0 |
| 20260510164520 | 79 | 69 | 2.6 | 4.3 | 0.00 | 0.00 | 0.00 | 73 | 1021.0 |
| 20260510163526 | 77 | 235 | 3.5 | 5.2 | 0.00 | 0.00 | 0.00 | 72 | 1021.1 |
| 20260510162521 | 77 | 291 | 3.5 | 5.2 | 0.00 | 0.00 | 0.00 | 74 | 1021.0 |
| 20260510161528 | 78 | 65 | 1.7 | 4.3 | 0.00 | 0.00 | 0.00 | 73 | 1021.1 |
| 20260510160543 | 77 | 59 | 1.7 | 2.6 | 0.00 | 0.00 | 0.00 | 77 | 1021.3 |
| 20260510155527 | 76 | 255 | 0.9 | 1.7 | 0.00 | 0.00 | 0.00 | 78 | 1021.3 |
| 20260510154523 | 75 | 106 | 1.7 | 2.6 | 0.00 | 0.00 | 0.00 | 79 | 1021.2 |
| 20260510153532 | 74 | 325 | 2.6 | 3.5 | 0.00 | 0.00 | 0.00 | 80 | 1021.1 |
| 20260510152522 | 75 | 33 | 1.7 | 3.5 | 0.00 | 0.00 | 0.00 | 79 | 1021.0 |
| 20260510151530 | 75 | 350 | 1.7 | 3.5 | 0.00 | 0.00 | 0.00 | 79 | 1021.0 |
| 20260510150523 | 73 | 48 | 0.0 | 0.9 | 0.00 | 0.00 | 0.00 | 81 | 1021.0 |
| 20260510145550 | 73 | 224 | 2.6 | 5.2 | 0.00 | 0.00 | 0.00 | 83 | 1021.0 |
| 20260510144526 | 72 | 137 | 3.5 | 5.2 | 0.00 | 0.00 | 0.00 | 85 | 1021.0 |
| 20260510143522 | 71 | 185 | 2.6 | 4.3 | 0.00 | 0.00 | 0.00 | 89 | 1021.0 |
| 20260510142525 | 68 | 167 | 2.6 | 5.2 | 0.00 | 0.00 | 0.00 | 94 | 1021.0 |
| 20260510141542 | 66 | 166 | 3.5 | 5.2 | 0.00 | 0.00 | 0.00 | 97 | 1021.1 |
| 20260510140547 | 65 | 168 | 2.6 | 3.5 | 0.00 | 0.00 | 0.00 | 100 | 1021.2 |
| 20260510135522 | 65 | 162 | 0.9 | 2.6 | 0.00 | 0.00 | 0.00 | 100 | 1021.3 |
| 20260510134547 | 64 | 152 | 0.0 | 1.7 | 0.00 | 0.00 | 0.00 | 100 | 1021.1 |
| 20260510133524 | 63 | 133 | 0.9 | 2.6 | 0.00 | 0.00 | 0.00 | 100 | 1021.1 |
| 20260510132529 | 62 | 137 | 0.0 | 1.7 | 0.00 | 0.00 | 0.00 | 100 | 1021.0 |
| 20260510131524 | 62 | 121 | 1.7 | 2.6 | 0.00 | 0.00 | 0.00 | 100 | 1021.0 |
| 20260510130528 | 61 | 157 | 0.9 | 2.6 | 0.00 | 0.00 | 0.00 | 100 | 1020.9 |
| 20260510125525 | 60 | 204 | 0.0 | 0.9 | 0.00 | 0.00 | 0.00 | 100 | 1021.0 |
| 20260510124549 | 60 | 278 | 0.0 | 2.6 | 0.00 | 0.00 | 0.00 | 100 | 1020.9 |
| 20260510123524 | 59 | 277 | 0.0 | 0.9 | 0.00 | 0.00 | 0.00 | 100 | 1020.8 |
| 20260510122521 | 58 | 158 | 0.0 | 1.7 | 0.00 | 0.00 | 0.00 | 100 | 1020.6 |
| 20260510121525 | 58 | 160 | 1.7 | 4.3 | 0.00 | 0.00 | 0.00 | 100 | 1020.3 |
| 20260510120523 | 57 | 151 | 3.5 | 4.3 | 0.00 | 0.00 | 0.00 | 100 | 1020.3 |
| 20260510115546 | 57 | 159 | 3.5 | 4.3 | 0.00 | 0.00 | 0.00 | 100 | 1020.1 |
| 20260510114542 | 57 | 164 | 1.7 | 2.6 | 0.00 | 0.00 | 0.00 | 100 | 1020.0 |
| 20260510113526 | 57 | 152 | 1.7 | 2.6 | 0.00 | 0.00 | 0.00 | 100 | 1019.8 |
| 20260510112522 | 56 | 154 | 2.6 | 3.5 | 0.00 | 0.00 | 0.00 | 100 | 1019.6 |
| 20260510111529 | 56 | 150 | 0.0 | 1.7 | 0.00 | 0.00 | 0.00 | 100 | 1019.4 |
| 20260510110522 | 56 | 0.0 | 0.0 | 0.00 | 0.00 | 0.00 | 100 | 1019.3 | |
| 20260510105609 | 56 | 154 | 0.9 | 1.7 | 0.00 | 0.00 | 0.00 | 100 | 1019.2 |
| 20260510104524 | 57 | 128 | 0.9 | 1.7 | 0.00 | 0.00 | 0.00 | 100 | 1019.0 |
| 20260510103530 | 57 | 0.0 | 0.0 | 0.00 | 0.00 | 0.00 | 100 | 1018.9 | |
| 20260510102544 | 57 | 161 | 0.9 | 1.7 | 0.00 | 0.00 | 0.00 | 100 | 1018.7 |
| 20260510101521 | 57 | 166 | 0.9 | 2.6 | 0.00 | 0.00 | 0.00 | 100 | 1018.6 |
| 20260510100526 | 57 | 0.0 | 0.0 | 0.00 | 0.00 | 0.00 | 100 | 1018.5 | |
| 20260510095520 | 57 | 167 | 0.9 | 1.7 | 0.00 | 0.00 | 0.00 | 100 | 1018.2 |
| 20260510094525 | 57 | 0.0 | 0.0 | 0.00 | 0.00 | 0.00 | 100 | 1018.2 | |
| 20260510093544 | 58 | 0.0 | 0.0 | 0.00 | 0.00 | 0.00 | 100 | 1018.1 | |
| 20260510092527 | 58 | 0.0 | 0.0 | 0.00 | 0.00 | 0.00 | 100 | 1018.1 | |
| 20260510091522 | 58 | 0.0 | 0.0 | 0.00 | 0.00 | 0.00 | 100 | 1018.1 | |
| 20260510090527 | 58 | 0.0 | 0.0 | 0.00 | 0.00 | 0.00 | 100 | 1018.0 | |
| 20260510085522 | 58 | 0.0 | 0.0 | 0.00 | 0.00 | 0.00 | 100 | 1018.1 | |
| 20260510084530 | 59 | 0.0 | 0.0 | 0.00 | 0.00 | 0.00 | 100 | 1018.1 | |
| 20260510083523 | 59 | 0.0 | 0.0 | 0.00 | 0.00 | 0.00 | 100 | 1018.0 | |
| 20260510082530 | 59 | 0.0 | 0.0 | 0.00 | 0.00 | 0.00 | 100 | 1017.8 | |
| 20260510081525 | 60 | 0.0 | 0.0 | 0.00 | 0.00 | 0.00 | 100 | 1017.8 | |
| 20260510080521 | 60 | 0.0 | 0.0 | 0.00 | 0.00 | 0.00 | 100 | 1017.5 | |
| 20260510075525 | 60 | 0.0 | 0.0 | 0.00 | 0.00 | 0.00 | 100 | 1017.5 | |
| 20260510074520 | 59 | 0.0 | 0.0 | 0.00 | 0.00 | 0.00 | 100 | 1017.4 | |
| 20260510073528 | 60 | 0.0 | 0.0 | 0.00 | 0.00 | 0.00 | 100 | 1017.4 | |
| 20260510072520 | 60 | 0.0 | 0.0 | 0.00 | 0.00 | 0.00 | 99 | 1017.3 | |
| 20260510071528 | 60 | 0.0 | 0.0 | 0.00 | 0.00 | 0.00 | 99 | 1017.3 | |
| 20260510070522 | 60 | 152 | 0.9 | 1.7 | 0.00 | 0.00 | 0.00 | 99 | 1017.4 |
| 20260510065528 | 60 | 156 | 0.9 | 3.5 | 0.00 | 0.00 | 0.00 | 99 | 1017.4 |
| 20260510064522 | 61 | 0.0 | 0.0 | 0.00 | 0.00 | 0.00 | 99 | 1017.4 | |
| 20260510063528 | 61 | 0.0 | 0.0 | 0.00 | 0.00 | 0.00 | 98 | 1017.4 | |
| 20260510062524 | 61 | 0.0 | 0.0 | 0.00 | 0.00 | 0.00 | 98 | 1017.3 | |
| 20260510061529 | 61 | 0.0 | 0.0 | 0.00 | 0.00 | 0.00 | 98 | 1017.3 | |
| 20260510060524 | 62 | 0.0 | 0.0 | 0.00 | 0.00 | 0.00 | 98 | 1017.2 | |
| 20260510055522 | 62 | 0.0 | 0.0 | 0.00 | 0.00 | 0.00 | 98 | 1017.3 | |
| 20260510054525 | 62 | 0.0 | 0.0 | 0.00 | 0.00 | 0.00 | 98 | 1017.3 | |
| 20260510053519 | 62 | 0.0 | 0.9 | 0.00 | 0.00 | 0.00 | 97 | 1017.4 | |
| 20260510052525 | 63 | 0.0 | 0.0 | 0.00 | 0.00 | 0.00 | 97 | 1017.3 | |
| 20260510051602 | 63 | 0.0 | 0.0 | 0.00 | 0.00 | 0.00 | 97 | 1017.3 | |
| 20260510050527 | 63 | 0.0 | 0.0 | 0.00 | 0.00 | 0.00 | 96 | 1017.3 | |
| 20260510045523 | 64 | 0.0 | 0.9 | 0.00 | 0.00 | 0.00 | 97 | 1017.3 | |
| 20260510044528 | 64 | 225 | 0.9 | 1.7 | 0.00 | 0.00 | 0.00 | 96 | 1017.3 |
| 20260510043525 | 65 | 227 | 1.7 | 2.6 | 0.00 | 0.00 | 0.00 | 96 | 1017.3 |
| 20260510042527 | 65 | 0.0 | 0.0 | 0.00 | 0.00 | 0.00 | 95 | 1017.5 | |
| 20260510041523 | 65 | 222 | 2.6 | 5.2 | 0.00 | 0.00 | 0.00 | 95 | 1017.5 |
| 20260510040529 | 65 | 229 | 1.7 | 2.6 | 0.00 | 0.00 | 0.00 | 95 | 1017.6 |
| 20260510035525 | 66 | 228 | 2.6 | 3.5 | 0.00 | 0.00 | 0.00 | 94 | 1017.5 |
| 20260510034520 | 66 | 224 | 3.5 | 5.2 | 0.00 | 0.00 | 0.00 | 94 | 1017.5 |
| 20260510033526 | 66 | 230 | 3.5 | 5.2 | 0.00 | 0.00 | 0.00 | 94 | 1017.6 |
| 20260510032520 | 66 | 228 | 3.5 | 6.1 | 0.00 | 0.00 | 0.00 | 94 | 1017.5 |
| 20260510031527 | 66 | 205 | 1.7 | 3.5 | 0.00 | 0.00 | 0.00 | 93 | 1017.5 |
| 20260510030521 | 66 | 181 | 1.7 | 3.5 | 0.00 | 0.00 | 0.00 | 93 | 1017.3 |
| 20260510025529 | 66 | 169 | 1.7 | 5.2 | 0.00 | 0.00 | 0.00 | 92 | 1017.2 |
| 20260510024521 | 66 | 165 | 5.2 | 7.0 | 0.00 | 0.00 | 0.00 | 92 | 1017.0 |
| 20260510023527 | 65 | 164 | 2.6 | 3.5 | 0.00 | 0.00 | 0.00 | 93 | 1016.9 |
| 20260510022547 | 66 | 132 | 1.7 | 2.6 | 0.00 | 0.00 | 0.00 | 92 | 1016.7 |
| 20260510021529 | 65 | 216 | 0.0 | 1.7 | 0.00 | 0.00 | 0.00 | 91 | 1016.5 |
| 20260510020623 | 66 | 125 | 0.0 | 0.9 | 0.00 | 0.00 | 0.00 | 90 | 1016.2 |
| 20260510015532 | 67 | 0.0 | 0.0 | 0.00 | 0.00 | 0.00 | 89 | 1016.0 | |
| 20260510014525 | 67 | 162 | 0.0 | 1.7 | 0.00 | 0.00 | 0.00 | 88 | 1015.7 |
| 20260510013550 | 68 | 0.0 | 0.0 | 0.00 | 0.00 | 0.00 | 86 | 1015.4 | |
| 20260510012527 | 68 | 0.0 | 0.0 | 0.00 | 0.00 | 0.00 | 85 | 1015.3 | |
| 20260510011521 | 69 | 0.0 | 0.0 | 0.00 | 0.00 | 0.00 | 83 | 1015.1 | |
| 20260510010528 | 70 | 0.0 | 0.0 | 0.00 | 0.00 | 0.00 | 81 | 1014.9 | |
| 20260510005524 | 72 | 0.0 | 0.0 | 0.00 | 0.00 | 0.00 | 79 | 1014.8 | |
| 20260510004530 | 73 | 0.0 | 0.0 | 0.00 | 0.00 | 0.00 | 78 | 1014.6 | |
| 20260510003524 | 74 | 0.0 | 0.0 | 0.00 | 0.00 | 0.00 | 75 | 1014.5 | |
| 20260510002530 | 75 | 215 | 0.0 | 0.9 | 0.00 | 0.00 | 0.00 | 72 | 1014.4 |
| 20260510001523 | 76 | 221 | 1.7 | 2.6 | 0.00 | 0.00 | 0.00 | 70 | 1014.3 |
| 20260510000534 | 78 | 217 | 1.7 | 3.5 | 0.00 | 0.00 | 0.00 | 68 | 1014.2 |
| 20260509235524 | 78 | 215 | 1.7 | 3.5 | 0.00 | 0.00 | 0.00 | 66 | 1014.2 |
| 20260509234530 | 79 | 210 | 0.9 | 3.5 | 0.00 | 0.00 | 0.00 | 66 | 1014.0 |
| 20260509233528 | 79 | 185 | 0.0 | 0.9 | 0.00 | 0.00 | 0.00 | 64 | 1014.1 |
| 20260509232530 | 79 | 227 | 0.9 | 1.7 | 0.00 | 0.00 | 0.00 | 61 | 1014.0 |
| 20260509231524 | 79 | 215 | 0.9 | 2.6 | 0.00 | 0.00 | 0.00 | 60 | 1014.1 |
| 20260509230521 | 78 | 236 | 0.9 | 2.6 | 0.00 | 0.00 | 0.00 | 57 | 1014.1 |
| 20260509225700 | 79 | 297 | 2.6 | 3.5 | 0.00 | 0.00 | 0.00 | 55 | 1014.0 |
| 20260509224520 | 78 | 262 | 1.7 | 2.6 | 0.00 | 0.00 | 0.00 | 56 | 1013.9 |
| 20260509223528 | 79 | 218 | 0.9 | 2.6 | 0.00 | 0.00 | 0.00 | 55 | 1013.7 |
| 20260509222521 | 79 | 281 | 1.7 | 4.3 | 0.00 | 0.00 | 0.00 | 55 | 1013.8 |
| 20260509221528 | 79 | 291 | 1.7 | 2.6 | 0.00 | 0.00 | 0.00 | 56 | 1013.9 |
| 20260509220522 | 79 | 274 | 3.5 | 4.3 | 0.00 | 0.00 | 0.00 | 54 | 1013.7 |
| 20260509215527 | 79 | 290 | 1.7 | 3.5 | 0.00 | 0.00 | 0.00 | 54 | 1013.8 |
| 20260509214524 | 79 | 288 | 2.6 | 4.3 | 0.00 | 0.00 | 0.00 | 54 | 1013.6 |
| 20260509213549 | 79 | 284 | 3.5 | 6.1 | 0.00 | 0.00 | 0.00 | 53 | 1013.7 |
| 20260509212524 | 79 | 241 | 3.5 | 5.2 | 0.00 | 0.00 | 0.00 | 54 | 1013.6 |
| 20260509211549 | 79 | 288 | 3.5 | 6.1 | 0.00 | 0.00 | 0.00 | 52 | 1013.8 |
| 20260509210526 | 79 | 302 | 4.3 | 6.1 | 0.00 | 0.00 | 0.00 | 54 | 1013.8 |
| 20260509205520 | 79 | 299 | 3.5 | 7.8 | 0.00 | 0.00 | 0.00 | 55 | 1013.8 |
| 20260509204526 | 80 | 244 | 4.3 | 7.0 | 0.00 | 0.00 | 0.00 | 55 | 1013.9 |